Weather in Evpatoria

Russia / Republic of Crimea     45˚11′26″N   33˚22′03″E
temp.,
°C
wind,
m/s
gust,
m/s
humid.,
%
clouds,
%
prec.,
mm/h
press.,
hPa
HPBL,
m
29 november, sun
sun2900:00+12˚ssw578197 0.1 1019448
03:00+11˚sw348592 0.1 1019232
06:00+11˚ssw348094 0.0 1019265
09:00+12˚s567997 0.0 1019533
12:00+13˚ssw7876100 0.1 1020929
15:00+13˚s5770100 0.1 1019899
18:00+12˚s6978100 0.0 1020343
21:00+12˚s6978100 0.0 1020312
30 november, mon
mon3000:00+11˚sse467788 0.0 1020196
03:00+10˚ese236894 0.0 102088
06:00+9˚e4458100 0.0 101975
09:00+9˚ene4555100 0.0 1020107
12:00+12˚ne4548100 0.0 1019252
15:00+12˚ne5660100 0.0 1018357
18:00+9˚ne6970100 0.0 1018267
21:00+7˚ene6983100 0.0 1018263
1 december, tue
tue100:00+6˚ne5989100 0.0 1018283
03:00+6˚ne61092100 0.0 1018305
06:00+6˚ne61093100 0.0 1018351
09:00+6˚ne71190100 0.0 1019474
12:00+8˚ene7107291 0.0 1019689
15:00+8˚ene797086 0.0 1019763
18:00+7˚ene797391 0.0 1019792
21:00+7˚ene797294 0.0 1020773
2 december, wed
wed200:00+5˚ne578221 0.0 1020284
03:00+5˚ne578550 0.0 1021274
06:00+5˚nne468873 0.0 1021245
09:00+5˚nne348786 0.0 1021213
12:00+7˚n227160 0.0 1022414
15:00+8˚wnw226431 0.0 1021631
18:00+7˚nnw23724 0.0 1022166
21:00+5˚nnw33852 0.0 1023108
3 december, thu
thu300:00+5˚n23860 0.0 102393
03:00+4˚nne33850 0.0 102382
06:00+4˚nne34860 0.0 102394
09:00+4˚ne44891 0.0 1024124
12:00+8˚ene457512 0.0 1024387
15:00+9˚ene56708 0.0 1023492
18:00+6˚ene69864 0.0 1023314
21:00+5˚ene610916 0.0 1023332